Date String (YYYY-MM-DD hh:mm:ss) UTC,Instrument flags,Ambient pressure (hPa),Sample flow (lpm),Bypass flow (lpm),Sample temperature (°C),Ambient temperature (°C),ASC tube jacket temperature (°C),LED temperature (°C),Box temperature (°C),Sample RH (%),Span deviation,Mass concentration (μg/m³),Mass concentration (μg/m³),Mass concentration (μg/m³)
DateTimeUTC,F1_M11,P_M11,Q1_M11,Q2_M11,T1_M11,T2_M11,T3_M11,T4_M11,T5_M11,U1_M11,ZSPAN_M11,X2_M11,X0_M11,X1_M11
2022-10-15 09:00:00,,0825.5,4.99,0.00,28.9,27.4,00.0,37.7,30.7,09.3,0000.0,0004.28,0009.10,0003.68
2022-10-15 09:01:00,,0825.5,5.00,0.00,28.9,27.4,00.0,37.7,30.7,09.1,0000.0,0004.40,0010.70,0003.73
2022-10-15 09:02:00,,0825.5,5.00,0.00,28.9,27.4,00.0,37.7,30.8,08.9,0000.0,0004.40,0011.15,0003.75
2022-10-15 09:03:00,,0825.4,5.00,0.00,28.9,27.4,00.0,37.7,30.8,09.0,0000.0,0004.41,0011.24,0003.77
2022-10-15 09:04:00,,0825.4,4.99,0.00,28.9,27.4,00.0,37.7,30.7,08.7,0000.0,0004.41,0011.84,0003.74
2022-10-15 09:05:00,,0825.5,5.01,0.00,28.9,27.4,00.0,37.7,30.7,08.6,0000.0,0004.35,0013.38,0003.66
2022-10-15 09:06:00,,0825.4,4.99,0.00,28.9,27.4,00.0,37.7,30.7,08.6,0000.0,0004.30,0014.72,0003.55
2022-10-15 09:07:00,,0825.5,5.01,0.00,28.9,27.4,00.0,37.7,30.7,08.7,0000.0,0004.21,0014.53,0003.43
2022-10-15 09:08:00,,0825.5,4.98,0.00,28.9,27.4,00.0,37.7,30.8,08.7,0000.0,0004.10,0013.81,0003.32
2022-10-15 09:09:00,,0825.5,5.01,0.00,28.9,27.4,00.0,37.7,30.8,08.8,0000.0,0004.00,0014.16,0003.22
2022-10-15 09:10:00,,0825.6,4.99,0.00,28.9,27.4,00.0,37.7,30.8,08.8,0000.0,0003.90,0014.15,0003.14
2022-10-15 09:11:00,,0825.5,5.01,0.00,28.9,27.4,00.0,37.7,30.8,08.9,0000.0,0003.78,0013.66,0003.05
2022-10-15 09:12:00,,0825.6,4.99,0.00,28.9,27.4,00.0,37.7,30.8,08.9,0000.0,0003.69,0012.09,0002.98
2022-10-15 09:13:00,,0825.6,5.01,0.00,28.9,27.4,00.0,37.7,30.8,08.9,0000.0,0003.68,0011.69,0002.93
2022-10-15 09:14:00,,0825.6,5.00,0.00,28.9,27.4,00.0,37.8,30.8,08.9,0000.0,0003.65,0011.51,0002.87
2022-10-15 09:15:00,,0825.6,4.99,0.00,28.9,27.4,00.0,37.8,30.8,08.9,0000.0,0003.59,0010.60,0002.87
2022-10-15 09:16:00,,0825.6,5.01,0.00,28.9,27.4,00.0,37.8,30.8,08.9,0000.0,0003.55,0009.52,0002.88
2022-10-15 09:17:00,,0825.6,5.01,0.00,28.9,27.4,00.0,37.8,30.8,08.8,0000.0,0003.52,0008.33,0002.89
2022-10-15 09:18:00,,0825.6,4.99,0.00,28.9,27.4,00.0,37.8,30.8,08.7,0000.0,0003.51,0008.05,0002.91
2022-10-15 09:19:00,,0825.6,5.01,0.00,28.9,27.5,00.0,37.8,30.8,08.6,0000.0,0003.50,0007.95,0002.92
2022-10-15 09:20:00,,0825.7,4.99,0.00,28.9,27.5,00.0,37.8,30.8,08.5,0000.0,0003.52,0007.63,0002.94
2022-10-15 09:21:00,,0825.6,5.00,0.00,28.9,27.4,00.0,37.8,30.8,08.6,0000.0,0003.52,0007.55,0002.93
2022-10-15 09:22:00,,0825.6,5.00,0.00,28.9,27.4,00.0,37.8,30.8,08.7,0000.0,0003.51,0007.65,0002.92
2022-10-15 09:23:00,,0825.6,5.01,0.00,28.9,27.5,00.0,37.8,30.8,08.6,0000.0,0003.52,0007.77,0002.90
2022-10-15 09:24:00,,0825.6,4.99,0.00,28.9,27.4,00.0,37.8,30.8,08.7,0000.0,0003.52,0007.62,0002.89
2022-10-15 09:25:00,,0825.7,5.00,0.00,28.9,27.5,00.0,37.8,30.8,08.7,0000.0,0003.51,0007.76,0002.89
2022-10-15 09:26:00,,0825.7,5.01,0.00,29.0,27.5,00.0,37.8,30.8,08.8,0000.0,0003.53,0007.94,0002.88
2022-10-15 09:27:00,,0825.7,4.99,0.00,29.0,27.5,00.0,37.8,30.8,08.7,0000.0,0003.59,0007.76,0002.88
2022-10-15 09:28:00,,0825.7,5.00,0.00,29.0,27.5,00.0,37.8,30.8,08.6,0000.0,0003.64,0007.85,0002.87
2022-10-15 09:29:00,,0825.6,5.00,0.00,28.9,27.5,00.0,37.8,30.8,08.6,0000.0,0003.66,0007.92,0002.86
2022-10-15 09:30:00,,0825.6,5.00,0.00,29.0,27.4,00.0,37.8,30.8,08.5,0000.0,0003.67,0008.01,0002.85
2022-10-15 09:31:00,,0825.7,5.00,0.00,29.0,27.5,00.0,37.8,30.8,08.4,0000.0,0003.67,0008.46,0002.86
2022-10-15 09:32:00,,0825.6,5.01,0.00,29.0,27.4,00.0,37.8,30.8,08.3,0000.0,0003.69,0008.81,0002.87
2022-10-15 09:33:00,,0825.6,5.00,0.00,29.0,27.4,00.0,37.8,30.8,08.3,0000.0,0003.69,0009.62,0002.88
2022-10-15 09:34:00,,0825.5,4.99,0.00,29.0,27.4,00.0,37.8,30.8,08.2,0000.0,0003.68,0009.61,0002.86
2022-10-15 09:35:00,,0825.6,5.02,0.00,28.9,27.4,00.0,37.8,30.7,08.2,0000.0,0003.66,0009.84,0002.85
2022-10-15 09:36:00,,0825.6,4.99,0.00,28.9,27.4,00.0,37.8,30.7,08.2,0000.0,0003.66,0009.70,0002.84
2022-10-15 09:37:00,,0825.8,5.01,0.00,28.9,27.3,00.0,37.8,30.7,08.3,0000.0,0003.65,0010.44,0002.83
2022-10-15 09:38:00,,0825.6,4.98,0.00,28.9,27.3,00.0,37.8,30.7,08.3,0000.0,0003.62,0010.50,0002.81
2022-10-15 09:39:00,,0825.6,5.01,0.00,28.9,27.3,00.0,37.8,30.6,08.3,0000.0,0003.57,0010.61,0002.80
2022-10-15 09:40:00,,0825.7,4.98,0.00,28.9,27.2,00.0,37.8,30.7,08.2,0000.0,0003.52,0010.96,0002.80
2022-10-15 09:41:00,,0825.7,5.02,0.00,28.9,27.2,00.0,37.8,30.7,08.3,0000.0,0003.52,0010.98,0002.79
2022-10-15 09:42:00,,0825.7,4.99,0.00,28.9,27.2,00.0,37.8,30.6,08.6,0000.0,0003.53,0010.44,0002.79
2022-10-15 09:43:00,,0825.7,5.00,0.00,28.9,27.1,00.0,37.8,30.6,08.6,0000.0,0003.53,0010.10,0002.79
2022-10-15 09:44:00,,0825.7,5.01,0.00,28.8,27.1,00.0,37.7,30.6,08.6,0000.0,0003.55,0009.13,0002.78
2022-10-15 09:45:00,,0825.7,5.01,0.00,28.8,27.1,00.0,37.7,30.6,08.5,0000.0,0003.54,0009.29,0002.78
2022-10-15 09:46:00,,0825.8,4.99,0.00,28.8,27.0,00.0,37.7,30.5,08.5,0000.0,0003.55,0009.97,0002.79
2022-10-15 09:47:00,,0825.7,5.01,0.00,28.8,27.0,00.0,37.7,30.5,08.5,0000.0,0003.54,0009.93,0002.80
2022-10-15 09:48:00,,0825.7,5.01,0.00,28.8,26.9,00.0,37.7,30.5,08.7,0000.0,0003.55,0009.27,0002.81
2022-10-15 09:49:00,,0825.7,5.00,0.00,28.7,26.9,00.0,37.7,30.4,08.7,0000.0,0003.56,0009.12,0002.82
2022-10-15 09:50:00,,0826.1,4.99,0.00,28.7,26.9,00.0,37.7,30.3,08.7,0000.0,0003.54,0009.46,0002.82
2022-10-15 09:51:00,,0825.7,5.00,0.00,28.7,26.8,00.0,37.7,30.3,08.8,0000.0,0003.53,0008.78,0002.82
2022-10-15 09:52:00,,0825.7,5.00,0.00,28.6,26.8,00.0,37.6,30.3,08.7,0000.0,0003.50,0008.63,0002.83
2022-10-15 09:53:00,,0825.7,5.00,0.00,28.6,26.8,00.0,37.6,30.2,08.5,0000.0,0003.52,0008.71,0002.86
2022-10-15 09:54:00,,0825.7,5.00,0.00,28.6,26.8,00.0,37.6,30.2,08.5,0000.0,0003.50,0008.72,0002.88
2022-10-15 09:55:00,,0825.7,5.01,0.00,28.6,26.8,00.0,37.6,30.3,08.5,0000.0,0003.49,0009.09,0002.91
2022-10-15 09:56:00,,0825.7,4.99,0.00,28.6,26.7,00.0,37.6,30.2,08.4,0000.0,0003.51,0009.14,0002.91
2022-10-15 09:57:00,,0825.7,5.00,0.00,28.5,26.7,00.0,37.6,30.2,08.4,0000.0,0003.49,0008.00,0002.90
2022-10-15 09:58:00,,0825.8,5.00,0.00,28.5,26.7,00.0,37.5,30.2,08.4,0000.0,0003.46,0008.32,0002.88
2022-10-15 09:59:00,,0826.1,5.00,0.00,28.5,26.7,00.0,37.5,30.2,08.4,0000.0,0003.45,0010.55,0002.87
